Regional Weather Roundup
Issued by NWS Charleston, WV

Home | Current Version | Previous Version | Graphics & Text | Print | Product List | Glossary On
Versions: 1 2 3 4 5 6 7 8 9 10 11 12 13 14 15 16 17 18 19 20 21 22 23 24 25 26 27 28 29 30 31 32 33 34 35 36 37 38 39 40 41 42 43 44 45 46 47 48 49 50
367
ASUS41 KRLX 101110
RWRRLX
West Virginia Regional Weather Roundup
National Weather Service Charleston WV
Issued by National Weather Service Pittsburgh PA
600 AM EST SAT DEC 10 2016

Note: "fair" indicates few or no clouds below 12,000 feet with no
significant weather and/or obstructions to visibility.

WVZ003-101200-
Northern Panhandle of West Virginia

CITY           SKY/WX    TMP DP  RH WIND       PRES   REMARKS
WHEELING       LGT SNOW  22  17  81 W9        30.45S WCI  12
$$

WVZ009-101200-
Northwest West Virginia

CITY           SKY/WX    TMP DP  RH WIND       PRES   REMARKS
PARKERSBURG    CLOUDY    23  14  68 SW6       30.55S WCI  16
$$

WVZ006-101200-
Western West Virginia

CITY           SKY/WX    TMP DP  RH WIND       PRES   REMARKS
HUNTINGTON     CLOUDY    23  12  62 W3        30.55R
$$

WVZ015-101200-
West Central West Virginia

CITY           SKY/WX    TMP DP  RH WIND       PRES   REMARKS
CHARLESTON     CLOUDY    23  11  60 NW6       30.53S WCI  16
$$

WVZ031-101200-
North Central West Virginia

CITY           SKY/WX    TMP DP  RH WIND       PRES   REMARKS
CLARKSBURG     CLOUDY    22  15  75 SW8       30.49R WCI  12
MORGANTOWN     CLOUDY    23  14  68 SW8       30.47R WCI  14
$$

WVZ035-042-101200-
South Central West Virginia

CITY           SKY/WX    TMP DP  RH WIND       PRES   REMARKS
BECKLEY        CLOUDY    17   9  70 NW9       30.41S WCI   6
BLUEFIELD      MOCLDY    13   9  84 W7        30.39R WCI   3
$$

WVZ045-101200-
Greenbrier Valley of West Virginia

CITY           SKY/WX    TMP DP  RH WIND       PRES   REMARKS
LEWISBURG      FLURRIES  18  10  71 NW5       30.42S WCI  11
$$

WVZ047-101200-
Northern Mountains of West Virginia

CITY           SKY/WX    TMP DP  RH WIND       PRES   REMARKS
ELKINS         FLURRIES  20  12  71 SW5       30.45R WCI  13
$$

WVZ052-101200-
Eastern Panhandle of West Virginia

CITY           SKY/WX    TMP DP  RH WIND       PRES   REMARKS
MARTINSBURG    CLOUDY    28  14  55 W12       30.46R WCI  18
PETERSBURG     CLOUDY    27  15  60 W5        30.49R WCI  22
$$




USA.gov is the U.S. government's official web portal to all federal, state and local government web resources and services.